TimeMST,TemperatureF,Dew PointF,Humidity,Sea Level PressureIn,VisibilityMPH,Wind Direction,Wind SpeedMPH,Gust SpeedMPH,PrecipitationIn,Events,Conditions,WindDirDegrees,DateUTC
12:57 AM,33.1,21.0,61,29.75,10.0,SW,9.2,-,N/A,,Clear,230,2013-12-19 07:57:00
1:57 AM,37.0,21.0,52,29.71,10.0,WSW,10.4,-,N/A,,Clear,240,2013-12-19 08:57:00
2:57 AM,35.1,21.9,59,29.71,10.0,SW,13.8,-,N/A,,Clear,230,2013-12-19 09:57:00
3:57 AM,36.0,23.0,59,29.68,10.0,SW,15.0,-,N/A,,Clear,220,2013-12-19 10:57:00
4:57 AM,36.0,23.0,59,29.66,10.0,SW,16.1,-,N/A,,Clear,220,2013-12-19 11:57:00
5:57 AM,34.0,24.1,67,29.70,10.0,SW,15.0,-,N/A,,Clear,220,2013-12-19 12:57:00
6:57 AM,34.0,24.1,67,29.72,10.0,SW,13.8,-,N/A,,Clear,230,2013-12-19 13:57:00
7:57 AM,34.0,24.1,67,29.73,10.0,SW,13.8,-,N/A,,Clear,230,2013-12-19 14:57:00
8:57 AM,36.0,24.1,62,29.70,10.0,SW,24.2,31.1,N/A,,Clear,220,2013-12-19 15:57:00
9:57 AM,37.0,24.1,59,29.71,10.0,SW,25.3,36.8,N/A,,Clear,220,2013-12-19 16:57:00
10:57 AM,37.9,23.0,55,29.70,10.0,SSW,23.0,39.1,N/A,,Clear,210,2013-12-19 17:57:00
11:57 AM,39.0,21.0,49,29.68,10.0,SSW,28.8,38.0,N/A,,Clear,210,2013-12-19 18:57:00
12:57 PM,39.0,21.0,49,29.64,10.0,SSW,25.3,33.4,N/A,,Clear,210,2013-12-19 19:57:00
1:57 PM,37.9,21.9,53,29.62,10.0,SSW,19.6,33.4,N/A,,Clear,210,2013-12-19 20:57:00
2:57 PM,39.0,23.0,53,29.63,10.0,SW,18.4,-,N/A,,Clear,220,2013-12-19 21:57:00
3:57 PM,37.9,23.0,55,29.65,10.0,SSW,13.8,-,N/A,,Mostly Cloudy,200,2013-12-19 22:57:00
4:57 PM,37.0,24.1,59,29.66,9.0,SSW,10.4,-,0.00,Snow,Light Snow,200,2013-12-19 23:57:00
5:22 PM,35.1,25.0,67,29.77,4.0,SW,16.1,24.2,0.01,Snow,Light Snow,230,2013-12-20 00:22:00
5:57 PM,33.1,26.1,75,29.70,2.5,South,5.8,-,0.01,Snow,Light Snow,170,2013-12-20 00:57:00
6:18 PM,32.0,28.0,85,29.77,5.0,Variable,3.5,-,0.00,Snow,Light Snow,0,2013-12-20 01:18:00
6:27 PM,32.0,28.0,85,29.77,5.0,WSW,3.5,-,0.00,Snow,Light Snow,240,2013-12-20 01:27:00
6:57 PM,32.0,28.0,85,29.72,4.0,Calm,Calm,-,0.01,Snow,Light Snow,0,2013-12-20 01:57:00
7:07 PM,32.0,28.0,85,29.77,1.8,Calm,Calm,-,0.00,Snow,Light Snow,0,2013-12-20 02:07:00
7:15 PM,32.0,28.9,88,29.78,0.8,Calm,Calm,-,0.01,Snow,Light Snow,0,2013-12-20 02:15:00
7:25 PM,30.9,28.9,92,29.78,0.8,Calm,Calm,-,0.01,Snow,Light Snow,0,2013-12-20 02:25:00
7:41 PM,30.9,28.9,92,29.78,0.5,Calm,Calm,-,0.04,Fog-Snow,Snow,0,2013-12-20 02:41:00
7:57 PM,30.9,28.9,92,29.72,0.5,East,3.5,-,0.06,Fog-Snow,Snow,90,2013-12-20 02:57:00
8:47 PM,30.9,28.9,92,29.76,1.0,NE,3.5,-,0.07,Snow,Light Snow,40,2013-12-20 03:47:00
8:57 PM,30.9,28.9,92,29.69,1.0,Calm,Calm,-,0.08,Snow,Light Snow,0,2013-12-20 03:57:00
9:09 PM,30.9,28.9,92,29.75,0.5,Calm,Calm,-,0.01,Fog-Snow,Snow,0,2013-12-20 04:09:00
9:20 PM,30.9,28.9,92,29.75,0.5,Calm,Calm,-,0.03,Fog-Snow,Snow,0,2013-12-20 04:20:00
9:57 PM,30.0,28.0,92,29.69,0.5,WNW,3.5,-,0.10,Fog-Snow,Snow,290,2013-12-20 04:57:00
10:16 PM,30.0,28.0,92,29.76,1.2,Variable,4.6,-,0.01,Snow,Light Snow,0,2013-12-20 05:16:00
10:38 PM,30.0,28.0,92,29.75,2.5,Variable,3.5,-,0.02,Snow,Light Snow,0,2013-12-20 05:38:00
10:54 PM,30.2,28.4,93,29.75,0.8,West,3.5,-,0.03,Snow,Light Snow,270,2013-12-20 05:54:00
10:57 PM,30.0,28.0,92,29.68,0.5,Calm,Calm,-,0.04,Fog-Snow,Snow,0,2013-12-20 05:57:00
11:03 PM,30.0,28.0,92,29.75,1.0,Calm,Calm,-,0.00,Snow,Light Snow,0,2013-12-20 06:03:00
11:08 PM,30.0,28.0,92,29.75,3.0,Calm,Calm,-,0.00,Snow,Light Snow,0,2013-12-20 06:08:00
11:12 PM,30.0,28.0,92,29.75,1.8,Calm,Calm,-,0.01,Snow,Light Snow,0,2013-12-20 06:12:00
11:25 PM,30.0,28.9,96,29.75,0.8,Calm,Calm,-,0.02,Snow,Light Snow,0,2013-12-20 06:25:00
11:38 PM,30.0,28.9,96,29.75,0.2,Calm,Calm,-,0.06,Fog-Snow,Heavy Snow,0,2013-12-20 06:38:00
11:48 PM,30.0,28.9,96,29.74,0.8,Calm,Calm,-,0.07,Snow,Light Snow,0,2013-12-20 06:48:00
11:57 PM,30.0,28.9,96,29.67,1.2,WNW,3.5,-,0.08,Snow,Light Snow,290,2013-12-20 06:57:00